Temp
-9 -9 -9 -9 -9 -9 -9 -9 -9 -9 -9 -9 -9 -9 -9 -9 -9 -9 -9 -9 -9 -9 -9 -9 -9 -9 -9 -9 -9 -9 -9 -9 -9 -9 -9 -9 -9 -9 -9 -9 -9 -9
-9 -9 -9 -9 -9 -9 -9 -9 -9 -9 -9 -9 -9 -9 -9 -9 -9 -9 -9 -9 -9 -9 -9 -9 -9 -9 -9 -9 -9 -9 -9 -9 -9 -9 -9 -9 -9 -9 -9 -9 -9 -9
-10 -10 -10 -10 -9 -9 -10 -10 -9 -9 -9 -9 -9 -9 -9 -9 -9 -9 -9 -9 -9 -9 -9 -9 -9 -9 -9 -9 -9 -9 -9 -9 -9 -9 -9 -9 -9 -9 -10 -10 -10 -10
-10 -10 -10 -10 -10 -10 -10 -10 -9 -9 -9 -10 -10 -10 -10 -10 -10 -9 -9 -9 -9 -9 -9 -9 -9 -9 -9 -9 -9 -9 -9 -10 -10 -10 -10 -10 -10 -10 -10 -10 -10 -10
-10 -10 -10 -10 -10 -10 -10 -9 -9 -10 -10 -10 -10 -10 -10 -10 -10 -10 -10 -9 -9 -9 -9 -9 -9 -9 -9 -10 -10 -10 -10 -10 -10 -10 -10 -10 -10 -10 -10 -10 -10 -10
-10 -10 -10 -10 -10 -10 -10 -10 -10 -10 -10 -10 -10 -10 -10 -10 -10 -10 -10 -10 -10 -10 -10 -10 -10 -10 -10 -10 -10 -10 -10 -10 -10 -10 -10 -10 -10 -10 -11 -11 -11 -11
-11 -11 -10 -10 -10 -10 -10 -10 -10 -10 -10 -10 -10 -10 -10 -10 -10 -10 -10 -10 -10 -10 -10 -10 -10 -10 -10 -10 -10 -10 -10 -10 -10 -10 -10 -10 -11 -11 -11 -11 -11 -11
-11 -11 -10 -10 -10 -10 -10 -10 -10 -10 -10 -10 -10 -10 -10 -10 -10 -10 -10 -10 -10 -10 -10 -10 -10 -10 -10 -10 -10 -10 -10 -10 -11 -11 -11 -11 -11 -11 -11 -11 -11 -11
-11 -11 -11 -11 -11 -11 -11 -11 -11 -11 -11 -11 -11 -11 -11 -10 -10 -10 -10 -10 -10 -10 -10 -10 -10 -10 -10 -10 -10 -10 -10 -11 -11 -11 -11 -11 -11 -11 -12 -12 -12 -12
-11 -11 -11 -11 -11 -11 -11 -11 -11 -11 -11 -11 -11 -11 -11 -11 -11 -11 -11 -11 -11 -10 -10 -10 -10 -10 -10 -10 -10 -10 -11 -11 -11 -11 -12 -12 -12 -12 -12 -12 -12 -12
-11 -11 -11 -11 -11 -11 -11 -12 -12 -11 -11 -11 -11 -11 -11 -11 -11 -11 -11 -11 -11 -11 -11 -11 -10 -10 -10 -10 -10 -11 -11 -11 -11 -12 -12 -12 -12 -12 -12 -12 -12 -12
-11 -11 -11 -11 -11 -12 -12 -12 -12 -12 -12 -11 -11 -11 -11 -11 -11 -11 -11 -11 -11 -11 -11 -11 -11 -10 -10 -10 -11 -11 -11 -11 -12 -12 -12 -12 -12 -13 -13 -13 -13 -13
-12 -12 -12 -12 -12 -12 -12 -12 -12 -12 -12 -12 -11 -11 -11 -11 -11 -11 -11 -11 -11 -11 -11 -11 -11 -11 -10 -11 -11 -11 -11 -12 -12 -12 -12 -12 -13 -13 -13 -13 -13 -13
-12 -12 -12 -12 -12 -12 -12 -12 -12 -12 -12 -12 -11 -11 -11 -11 -11 -11 -11 -11 -11 -11 -11 -11 -11 -11 -11 -11 -11 -11 -12 -12 -12 -12 -12 -13 -13 -13 -13 -13 -13 -13
-13 -13 -12 -12 -12 -12 -12 -12 -12 -12 -12 -11 -11 -11 -11 -11 -11 -11 -11 -11 -11 -11 -11 -11 -11 -11 -12 -12 -12 -12 -12 -12 -12 -13 -13 -13 -13 -13 -13 -14 -14 -14
-13 -13 -13 -13 -12 -12 -12 -12 -12 -12 -12 -12 -12 -12 -12 -12 -12 -12 -12 -12 -12 -12 -12 -12 -12 -12 -12 -12 -12 -13 -13 -13 -13 -13 -13 -13 -13 -14 -14 -14 -14 -14
-13 -13 -13 -13 -13 -13 -12 -12 -12 -12 -12 -12 -12 -12 -12 -12 -12 -12 -12 -12 -12 -12 -12 -12 -12 -13 -13 -13 -13 -13 -13 -13 -13 -13 -13 -14 -14 -14 -14 -14 -14 -14
-13 -13 -13 -13 -13 -13 -13 -13 -13 -13 -13 -13 -13 -13 -13 -12 -12 -12 -12 -12 -12 -13 -13 -13 -13 -13 -13 -13 -13 -14 -14 -14 -14 -14 -14 -14 -14 -14 -14 -14 -14 -15
-13 -13 -13 -13 -13 -13 -13 -13 -13 -13 -13 -13 -13 -13 -13 -13 -13 -13 -13 -13 -13 -13 -13 -13 -14 -14 -14 -14 -14 -14 -14 -14 -14 -14 -14 -14 -15 -15 -15 -15 -15 -15
-13 -13 -13 -13 -13 -14 -14 -14 -14 -14 -14 -14 -14 -14 -14 -14 -14 -14 -14 -14 -14 -14 -14 -14 -14 -14 -14 -14 -14 -14 -14 -14 -15 -15 -15 -15 -15 -15 -15 -15 -15 -15
-13 -14 -14 -14 -14 -14 -14 -14 -14 -14 -14 -14 -14 -14 -14 -14 -14 -14 -14 -14 -14 -14 -14 -14 -14 -14 -15 -15 -15 -15 -15 -15 -15 -15 -15 -15 -15 -15 -15 -15 -15 -15
-14 -14 -14 -14 -14 -15 -15 -15 -15 -15 -15 -15 -15 -14 -14 -14 -14 -14 -14 -14 -15 -15 -15 -15 -15 -15 -15 -15 -15 -15 -15 -15 -15 -15 -15 -15 -15 -16 -16 -16 -16 -16
-15 -15 -15 -15 -15 -15 -15 -15 -15 -15 -15 -15 -15 -15 -15 -15 -15 -15 -15 -15 -15 -15 -15 -15 -15 -15 -15 -15 -15 -16 -16 -16 -16 -16 -16 -16 -16 -16 -16 -16 -16 -16
-16 -16 -16 -16 -16 -16 -16 -15 -15 -15 -15 -15 -15 -15 -15 -15 -15 -15 -15 -15 -15 -16 -16 -15 -15 -15 -15 -16 -16 -16 -16 -16 -16 -16 -16 -16 -16 -16 -16 -16 -16 -16
-17 -16 -16 -16 -16 -16 -16 -16 -16 -16 -16 -16 -16 -16 -16 -16 -16 -16 -16 -16 -16 -16 -16 -16 -16 -16 -16 -16 -16 -16 -16 -16 -16 -16 -16 -16 -16 -16 -16 -16 -16 -16
-17 -17 -17 -17 -17 -17 -17 -17 -16 -16 -16 -16 -16 -16 -16 -16 -16 -16 -16 -16 -16 -16 -16 -16 -16 -16 -16 -16 -16 -16 -16 -16 -16 -17 -17 -17 -17 -17 -16 -16 -16 -17
Height
5778 5779 5780 5781 5782 5783 5783 5784 5783 5783 5783 5782 5782 5783 5783 5783 5782 5781 5780 5779 5779 5778 5778 5778 5777 5777 5776 5776 5775 5774 5774 5774 5773 5773 5772 5771 5771 5769 5768 5767 5766 5764
5771 5772 5773 5774 5775 5776 5776 5777 5776 5776 5776 5776 5777 5777 5777 5777 5776 5775 5774 5773 5773 5773 5772 5772 5771 5771 5770 5770 5769 5768 5768 5767 5766 5766 5765 5764 5764 5763 5762 5760 5759 5758
5763 5764 5766 5766 5767 5768 5769 5768 5768 5769 5769 5770 5771 5770 5770 5771 5769 5768 5768 5767 5767 5766 5766 5765 5765 5764 5764 5763 5762 5761 5761 5760 5759 5758 5757 5757 5756 5756 5755 5754 5752 5752
5756 5757 5758 5758 5759 5760 5760 5760 5761 5762 5763 5763 5764 5763 5763 5763 5762 5762 5762 5761 5760 5760 5759 5758 5758 5757 5757 5756 5755 5754 5754 5753 5752 5751 5750 5750 5749 5749 5748 5747 5746 5745
5747 5748 5749 5750 5750 5751 5751 5752 5754 5755 5755 5756 5756 5756 5756 5756 5756 5755 5755 5754 5753 5753 5752 5751 5750 5750 5749 5748 5748 5747 5746 5746 5745 5744 5743 5743 5742 5742 5741 5740 5739 5738
5739 5740 5740 5741 5741 5742 5743 5745 5746 5747 5748 5748 5748 5748 5748 5748 5748 5748 5747 5747 5746 5745 5744 5744 5743 5743 5742 5741 5740 5739 5739 5738 5737 5736 5736 5736 5735 5734 5733 5732 5732 5731
5731 5731 5732 5732 5734 5735 5736 5738 5739 5739 5740 5740 5740 5740 5740 5740 5740 5740 5739 5739 5738 5738 5737 5737 5736 5735 5734 5734 5733 5732 5731 5731 5730 5729 5729 5729 5728 5727 5727 5726 5725 5724
5723 5723 5724 5725 5727 5728 5729 5730 5731 5732 5732 5732 5732 5732 5732 5732 5732 5732 5732 5731 5731 5731 5730 5730 5729 5728 5727 5726 5726 5725 5724 5723 5723 5722 5721 5721 5721 5720 5720 5718 5718 5717
5715 5716 5717 5719 5720 5721 5722 5723 5723 5723 5724 5724 5724 5723 5724 5724 5724 5724 5724 5724 5724 5723 5723 5722 5721 5721 5719 5719 5718 5717 5716 5716 5715 5714 5714 5714 5713 5713 5712 5711 5710 5710
5708 5710 5711 5712 5713 5713 5714 5715 5714 5715 5715 5715 5715 5715 5716 5717 5717 5717 5717 5717 5717 5716 5715 5715 5714 5713 5712 5711 5711 5710 5709 5708 5707 5707 5706 5706 5705 5705 5704 5703 5702 5702
5701 5703 5704 5705 5705 5706 5706 5707 5706 5707 5707 5707 5707 5708 5709 5709 5709 5709 5709 5709 5709 5708 5707 5707 5706 5706 5705 5704 5703 5702 5701 5700 5700 5699 5698 5698 5697 5696 5695 5694 5694 5693
5694 5695 5696 5697 5697 5698 5698 5698 5698 5698 5699 5699 5700 5701 5701 5702 5702 5702 5701 5701 5701 5700 5700 5699 5699 5698 5697 5696 5695 5694 5693 5692 5692 5691 5690 5689 5689 5688 5687 5686 5685 5685
5686 5686 5686 5687 5688 5688 5689 5689 5689 5690 5691 5692 5692 5693 5693 5694 5694 5693 5693 5692 5692 5691 5691 5691 5690 5690 5689 5688 5687 5685 5685 5684 5683 5682 5682 5681 5680 5679 5679 5678 5678 5678
5677 5677 5677 5678 5678 5679 5679 5680 5680 5681 5682 5683 5684 5684 5685 5685 5685 5684 5684 5684 5683 5683 5683 5683 5682 5682 5681 5679 5678 5677 5676 5676 5675 5674 5674 5673 5672 5671 5671 5671 5671 5670
5667 5667 5668 5669 5670 5670 5670 5671 5672 5672 5673 5674 5674 5675 5675 5675 5675 5675 5675 5675 5675 5674 5674 5674 5674 5673 5672 5671 5670 5669 5668 5668 5667 5666 5666 5665 5664 5664 5664 5664 5664 5663
5657 5658 5659 5660 5661 5662 5662 5663 5663 5663 5664 5664 5665 5665 5665 5665 5665 5666 5666 5666 5666 5666 5666 5666 5665 5664 5663 5662 5662 5661 5660 5660 5660 5659 5658 5658 5657 5657 5657 5657 5656 5656
5647 5648 5649 5650 5651 5652 5653 5654 5654 5654 5655 5655 5656 5656 5656 5656 5656 5657 5657 5657 5657 5657 5657 5657 5656 5655 5655 5654 5653 5653 5653 5652 5652 5651 5651 5650 5650 5650 5650 5649 5649 5648
5637 5637 5639 5640 5641 5642 5643 5644 5645 5646 5646 5646 5647 5647 5647 5647 5648 5648 5648 5648 5648 5648 5648 5648 5647 5646 5646 5646 5645 5645 5644 5644 5644 5644 5643 5643 5643 5643 5643 5642 5642 5641
5627 5628 5629 5630 5631 5632 5633 5634 5636 5636 5637 5637 5637 5638 5638 5638 5639 5639 5639 5639 5639 5639 5639 5639 5638 5638 5637 5637 5637 5636 5636 5636 5636 5636 5636 5635 5635 5635 5635 5635 5634 5634
5618 5619 5620 5620 5621 5622 5623 5625 5626 5627 5628 5628 5628 5628 5629 5629 5630 5630 5630 5630 5630 5631 5630 5630 5630 5629 5629 5628 5628 5628 5628 5628 5629 5628 5628 5628 5627 5628 5627 5627 5626 5626
5609 5609 5610 5611 5612 5612 5613 5615 5616 5617 5618 5618 5619 5619 5619 5620 5620 5620 5621 5621 5621 5622 5621 5621 5621 5620 5620 5620 5620 5620 5620 5620 5621 5620 5620 5620 5620 5620 5619 5618 5618 5618
5599 5599 5600 5601 5603 5603 5604 5605 5606 5607 5608 5608 5609 5609 5609 5610 5610 5610 5611 5611 5612 5612 5612 5612 5612 5612 5612 5612 5612 5612 5612 5612 5613 5612 5612 5612 5612 5612 5611 5610 5610 5610
5587 5588 5590 5592 5593 5594 5595 5596 5596 5597 5597 5598 5599 5599 5599 5600 5600 5601 5601 5602 5603 5603 5604 5604 5604 5604 5604 5604 5604 5605 5605 5605 5605 5604 5604 5604 5604 5604 5603 5602 5602 5601
5576 5578 5580 5582 5583 5585 5586 5586 5587 5587 5587 5588 5589 5589 5590 5590 5591 5591 5592 5593 5594 5595 5595 5595 5595 5596 5596 5596 5596 5597 5597 5597 5596 5596 5596 5596 5596 5595 5595 5594 5593 5593
5566 5568 5570 5572 5574 5575 5577 5577 5577 5578 5578 5578 5579 5580 5581 5581 5582 5583 5583 5585 5586 5586 5586 5587 5587 5587 5588 5588 5588 5588 5588 5588 5588 5588 5588 5588 5587 5587 5586 5585 5585 5584
5558 5559 5560 5562 5564 5565 5567 5567 5568 5568 5569 5570 5570 5571 5572 5572 5573 5574 5575 5576 5577 5578 5578 5579 5579 5579 5579 5579 5580 5580 5580 5580 5580 5580 5580 5579 5578 5578 5577 5576 5575 5574
Wind_Speed
58 57 56 54 53 52 51 50 50 50 50 50 50 49 48 48 48 49 50 50 50 50 49 49 49 49 50 50 51 51 51 50 50 50 51 51 51 51 52 52 52 53
60 60 59 58 57 56 55 54 54 54 55 54 53 53 52 51 52 53 53 53 54 53 53 53 52 52 53 53 54 54 54 54 54 54 54 54 54 54 54 54 55 55
62 62 62 61 60 59 59 59 59 58 57 56 56 56 55 54 55 56 56 56 56 56 56 56 55 55 55 56 56 57 57 57 57 57 57 57 57 56 56 56 56 56
62 63 63 63 63 63 63 63 62 60 59 59 59 59 58 57 58 58 58 58 58 57 58 58 58 58 58 58 59 59 59 60 60 60 60 60 59 58 58 58 58 58
63 63 63 64 65 65 65 65 63 62 62 62 61 61 60 59 59 59 59 59 59 59 59 59 59 59 59 60 61 61 62 62 63 63 63 62 61 61 61 60 60 60
63 64 64 65 66 66 65 64 64 63 63 62 62 61 61 60 59 59 59 59 59 59 59 59 59 60 60 61 62 63 64 64 65 65 65 65 64 64 63 63 63 62
62 64 66 66 66 65 64 64 63 63 63 62 61 61 60 60 59 58 58 58 57 57 57 57 58 59 60 61 63 64 65 66 66 67 67 67 66 66 66 65 65 65
60 62 64 66 66 65 64 64 63 63 62 62 61 61 60 59 58 57 55 54 53 52 53 54 55 57 59 60 62 63 64 66 66 67 67 67 67 67 67 67 67 66
59 61 62 62 62 62 62 62 62 62 61 61 60 59 58 57 55 53 51 50 50 51 52 54 55 57 59 60 62 63 64 65 66 66 66 66 66 66 66 67 67 67
59 60 60 60 59 58 57 57 57 58 58 57 56 56 55 53 52 51 51 51 52 53 54 55 57 58 60 61 63 64 65 66 66 67 67 66 66 66 67 67 67 67
59 58 59 59 58 57 55 54 54 54 54 54 54 54 54 53 53 53 54 55 56 57 57 58 58 59 61 62 64 65 66 66 67 67 67 67 66 66 67 67 67 67
59 58 58 58 58 58 56 56 55 55 55 55 56 56 56 56 57 57 58 60 61 61 61 61 61 61 62 64 65 66 66 67 67 67 67 67 66 67 67 67 67 66
60 60 60 60 60 60 60 60 60 59 59 59 59 60 60 60 61 62 63 64 65 65 64 64 64 64 64 65 66 67 67 67 67 67 67 67 67 67 67 67 66 66
63 62 62 62 63 63 64 64 64 63 62 62 63 63 63 64 65 67 68 68 69 68 68 67 67 66 66 67 67 68 68 68 68 67 67 67 66 66 66 66 65 64
66 65 65 65 66 67 67 67 66 66 65 65 65 66 67 68 70 71 72 72 72 71 70 69 68 68 68 68 68 68 67 67 67 66 66 66 66 65 65 64 63 61
70 69 68 68 69 69 69 69 69 69 68 68 69 70 71 73 74 74 74 74 74 73 71 70 69 69 68 68 68 67 67 66 66 66 66 65 65 64 63 62 61 59
74 74 73 73 73 73 73 73 73 73 73 74 75 75 76 76 76 76 75 75 74 73 72 71 70 69 68 68 68 67 66 66 66 66 65 65 64 63 61 60 57 55
78 78 78 78 78 78 77 77 78 78 78 79 79 78 78 77 76 75 75 74 73 73 72 71 70 70 69 68 68 67 67 67 66 65 65 64 63 60 58 56 53 52
80 81 81 82 81 80 79 79 78 78 77 77 77 76 76 75 75 74 74 74 73 73 73 72 71 70 69 69 69 68 67 66 65 64 62 61 59 57 55 53 52 51
79 80 81 81 80 79 78 77 75 74 73 73 73 74 74 74 75 74 74 74 74 73 73 73 72 71 70 70 69 68 67 65 63 61 59 58 56 55 54 53 53 53
77 77 77 77 77 76 75 74 72 71 71 71 72 73 74 75 75 75 75 75 74 74 74 73 73 72 71 70 68 67 65 63 61 60 58 58 57 56 55 55 54 54
76 76 76 76 75 74 73 72 71 70 70 71 72 73 74 74 75 75 76 75 75 74 74 73 73 72 70 69 67 65 64 62 61 60 59 59 58 57 56 56 56 56
76 76 76 75 75 74 74 73 72 71 71 72 72 73 74 75 75 76 76 76 75 74 73 73 72 71 69 68 66 65 63 63 62 62 61 60 59 58 58 58 58 59
76 76 76 75 75 74 74 74 74 73 73 73 73 74 75 75 76 76 76 75 74 72 72 71 70 69 68 67 66 65 65 64 65 64 63 62 62 61 61 61 61 61
77 77 77 77 76 75 74 75 75 74 74 74 74 74 75 75 75 75 74 73 71 70 70 69 68 68 67 67 67 67 67 67 67 66 65 64 64 63 63 63 64 64
74 76 77 77 77 76 76 76 76 75 75 75 75 75 75 75 75 74 73 72 70 69 68 67 67 67 68 69 70 71 71 70 69 67 66 65 65 66 66 67 68 68
Wind_Direction
260 261 261 262 261 261 261 260 261 262 262 263 263 264 265 266 268 269 270 271 272 273 273 274 275 276 277 277 278 278 278 278 277 277 277 276 276 276 276 277 277 278
260 261 261 261 261 261 261 261 260 260 261 262 264 265 265 267 268 269 269 270 271 272 273 273 274 275 275 276 277 278 278 278 278 277 277 277 277 277 277 277 278 279
261 261 261 261 261 261 261 260 260 260 261 263 264 265 266 266 267 268 269 270 271 272 273 273 274 274 275 276 277 277 278 278 278 277 277 277 277 277 277 278 279 279
261 261 261 261 261 261 260 260 260 261 262 262 263 264 265 265 266 267 268 269 270 271 272 272 273 274 274 275 276 276 277 277 277 277 277 277 277 277 277 278 279 280
262 261 261 261 260 260 260 260 261 262 262 262 263 264 264 265 265 266 267 268 268 269 270 270 271 272 273 273 274 275 275 276 276 276 276 277 277 277 278 278 279 280
261 261 260 260 260 260 261 261 262 262 262 263 263 264 265 265 265 265 265 266 266 267 267 268 269 270 271 272 272 273 274 274 275 275 276 276 277 277 278 279 280 281
262 261 261 261 261 261 261 262 262 262 262 263 263 264 264 264 265 265 265 265 265 266 267 268 268 269 270 270 271 272 273 273 274 274 275 275 276 277 278 279 279 280
264 263 262 262 262 262 263 263 263 263 263 263 263 263 263 263 263 263 263 263 265 266 268 269 270 271 271 271 272 272 272 273 273 273 274 274 275 276 276 277 278 278
265 265 265 264 263 263 263 263 263 263 263 262 261 261 260 260 260 260 261 264 267 270 272 273 273 272 272 272 272 272 273 273 273 274 274 274 274 275 275 276 276 277
263 264 265 265 264 263 262 262 261 260 260 258 257 256 256 256 257 260 264 268 272 274 275 275 275 274 273 273 272 272 273 273 274 274 274 275 275 275 275 275 276 276
260 261 262 262 262 261 260 259 257 256 255 254 253 253 255 257 261 264 268 271 274 275 276 276 276 276 274 273 272 272 272 273 273 273 274 274 274 274 274 274 275 275
257 257 257 258 257 257 257 256 255 254 254 254 255 256 258 261 264 267 269 272 274 276 277 277 276 276 275 273 271 271 271 271 272 272 272 272 273 273 273 273 274 274
254 253 253 253 254 254 254 254 254 254 255 256 258 259 261 263 264 266 268 271 273 275 276 276 276 275 274 271 270 269 270 270 270 271 271 271 271 272 272 272 273 274
251 250 250 251 251 252 252 253 253 254 255 257 259 261 262 264 265 267 268 270 272 274 275 275 274 273 271 269 268 268 268 269 269 270 270 271 271 272 272 273 274 275
249 249 249 250 250 251 252 252 253 254 255 256 259 262 264 266 267 268 269 271 272 273 274 273 272 270 268 266 266 266 267 268 269 270 270 271 272 272 273 274 275 275
248 248 249 250 251 252 253 253 254 255 256 258 261 263 265 267 268 269 270 270 271 272 273 272 270 268 266 265 265 266 267 268 269 270 270 271 272 272 273 274 275 276
248 249 249 250 251 252 253 254 256 257 259 261 262 265 267 268 268 269 269 270 270 270 270 269 268 267 266 265 266 267 268 269 269 270 270 271 272 273 273 274 274 274
250 250 251 252 253 254 255 256 257 258 260 262 263 265 266 267 267 267 267 268 268 268 268 268 267 266 265 266 267 268 269 269 270 270 271 271 272 272 272 272 272 273
253 253 253 254 255 256 257 258 258 260 261 262 263 264 265 265 265 265 266 266 266 267 267 266 266 266 266 266 267 268 269 270 270 270 271 271 270 270 269 269 271 273
256 255 255 255 256 256 257 258 259 260 261 262 262 263 263 264 264 264 264 265 265 265 265 265 265 265 266 267 268 269 269 270 270 270 269 269 268 267 268 270 273 275
257 256 256 256 256 256 257 257 258 259 260 260 261 262 262 263 263 263 263 264 264 264 264 264 264 265 266 267 268 269 269 269 269 269 268 267 267 268 269 272 274 276
256 256 256 256 256 256 256 257 258 258 258 259 259 260 261 261 262 262 263 263 263 263 263 263 264 265 266 267 268 269 269 269 268 268 267 267 268 270 272 274 276 278
254 254 254 255 255 256 256 257 257 257 257 257 258 259 260 260 261 261 262 262 262 262 263 263 264 265 266 267 268 269 268 268 268 268 269 269 270 272 274 275 278 279
251 251 252 253 254 255 256 256 256 256 256 257 257 258 259 259 260 260 261 261 262 262 263 263 264 266 267 268 269 269 269 270 270 270 270 271 272 274 275 277 279 281
250 250 251 251 252 253 255 256 256 256 256 257 257 258 259 259 260 260 261 261 262 262 263 264 265 267 269 270 271 271 271 271 271 271 272 273 274 275 276 278 280 281
250 250 250 250 251 252 253 254 255 256 256 257 258 258 259 259 260 260 260 261 261 262 264 265 267 269 270 271 271 271 271 270 270 270 272 273 275 276 277 278 279 279